When you browse on this site, cookies collect data to enhance your experience and personalize the content and advertising you see.
Visit our Privacy Policy to learn more. By continuing to use the site, you agree to this use of cookies and data.
  • In Hungary
  • List of Countries
  • For 7 days
  • Water Temperature
  • Satellite Maps
  • Weather Map
  • News
  • Weather Widgets
  • user-avatar
    Login

    Hourly Weather Cleveland

    Today, 18 February, Monday

    Time Temperature Precipitation Wind Pressure Humidity
    00:00 -5°C° 0 mm 3 mps 745 mmHg 69%
    01:00 -5°C° 0 mm 3 mps 746 mmHg 67%
    02:00 -7°C° 0 mm 4 mps 746 mmHg 65%
    03:00 -7°C° 0 mm 4 mps 746 mmHg 63%
    04:00 -7°C° 0 mm 4 mps 747 mmHg 61%
    05:00 -7°C° 0 mm 4 mps 747 mmHg 58%
    06:00 -7°C° 0 mm 4 mps 748 mmHg 56%
    07:00 -5°C° 0 mm 4 mps 748 mmHg 55%
    08:00 -6°C° 0 mm 5 mps 749 mmHg 53%
    09:00 -6°C° 0 mm 5 mps 749 mmHg 52%
    10:00 -4°C° 0 mm 5 mps 750 mmHg 47%
    11:00 -1°C° 0 mm 5 mps 750 mmHg 43%
    12:00 0°C° 0 mm 5 mps 750 mmHg 38%
    13:00 +1°C° 0 mm 5 mps 749 mmHg 38%
    14:00 +1°C° 0 mm 5 mps 749 mmHg 38%
    15:00 +2°C° 0 mm 5 mps 748 mmHg 38%
    16:00 +1°C° 0 mm 4 mps 748 mmHg 42%
    17:00 0°C° 0 mm 4 mps 748 mmHg 46%
    18:00 -1°C° 0 mm 4 mps 748 mmHg 50%
    19:00 -1°C° 0 mm 4 mps 749 mmHg 52%
    20:00 -2°C° 0 mm 5 mps 749 mmHg 55%
    21:00 -2°C° 0 mm 5 mps 750 mmHg 58%
    22:00 -4°C° 0 mm 5 mps 750 mmHg 61%
    23:00 -4°C° 0 mm 6 mps 750 mmHg 64%

    Tomorrow, 19 February, Tuesday

    Time Temperature Precipitation Wind Pressure Humidity
    00:00 -4°C° 0 mm 6 mps 749 mmHg 67%
    01:00 -4°C° 0 mm 6 mps 749 mmHg 69%
    02:00 -4°C° 0 mm 6 mps 748 mmHg 70%
    03:00 -4°C° 0 mm 6 mps 748 mmHg 72%
    04:00 -4°C° 0 mm 6 mps 748 mmHg 72%
    05:00 -4°C° 0 mm 6 mps 747 mmHg 73%
    06:00 -4°C° 0 mm 5 mps 747 mmHg 73%
    07:00 -4°C° 0 mm 5 mps 747 mmHg 71%
    08:00 -2°C° 0 mm 5 mps 746 mmHg 70%
    09:00 -2°C° 0 mm 5 mps 746 mmHg 68%
    10:00 -2°C° 0.5 mm 5 mps 746 mmHg 71%
    11:00 -2°C° 0.5 mm 5 mps 745 mmHg 74%
    12:00 -1°C° 0.5 mm 5 mps 745 mmHg 78%
    13:00 -2°C° 1.5 mm 5 mps 744 mmHg 83%
    14:00 -2°C° 1.5 mm 5 mps 743 mmHg 89%
    15:00 -3°C° 1.5 mm 6 mps 742 mmHg 94%
    16:00 -3°C° 0.3 mm 6 mps 741 mmHg 94%
    17:00 -3°C° 0.3 mm 6 mps 740 mmHg 94%
    18:00 -2°C° 0.3 mm 6 mps 739 mmHg 93%
    19:00 -1°C° 0.5 mm 5 mps 739 mmHg 95%
    20:00 -1°C° 0.5 mm 4 mps 738 mmHg 96%
    21:00 -1°C° 0.5 mm 4 mps 738 mmHg 97%
    22:00 0°C° 0.1 mm 3 mps 737 mmHg 98%
    23:00 +1°C° 0.1 mm 2 mps 737 mmHg 98%

    Day after tomorrow, 20 February, Wednesday

    Time Temperature Precipitation Wind Pressure Humidity
    00:00 +1°C° 0.1 mm 2 mps 736 mmHg 99%
    01:00 +1°C° 0.1 mm 2 mps 736 mmHg 99%
    02:00 +2°C° 0.1 mm 1 mps 735 mmHg 99%
    03:00 +2°C° 0.1 mm 1 mps 735 mmHg 98%
    04:00 +1°C° 0 mm 2 mps 735 mmHg 98%
    05:00 +1°C° 0 mm 2 mps 735 mmHg 98%
    06:00 +1°C° 0 mm 2 mps 735 mmHg 98%
    07:00 +1°C° 0 mm 2 mps 735 mmHg 98%
    08:00 +1°C° 0 mm 2 mps 736 mmHg 98%
    09:00 +2°C° 0 mm 2 mps 736 mmHg 98%
    10:00 +1°C° 0 mm 3 mps 736 mmHg 95%
    11:00 +1°C° 0 mm 4 mps 737 mmHg 92%
    12:00 +3°C° 0 mm 4 mps 737 mmHg 90%
    13:00 +2°C° 0 mm 5 mps 737 mmHg 86%
    14:00 +2°C° 0 mm 5 mps 737 mmHg 83%
    15:00 +2°C° 0 mm 5 mps 737 mmHg 80%
    16:00 +3°C° 0 mm 4 mps 738 mmHg 82%
    17:00 +2°C° 0 mm 3 mps 738 mmHg 84%
    18:00 +2°C° 0 mm 2 mps 739 mmHg 86%
    19:00 +1°C° 0 mm 2 mps 739 mmHg 87%
    20:00 -1°C° 0 mm 2 mps 740 mmHg 89%
    21:00 -1°C° 0 mm 2 mps 740 mmHg 90%
    22:00 -1°C° 0 mm 2 mps 741 mmHg 90%
    23:00 0°C° 0 mm 1 mps 741 mmHg 89%

    21 February, Thursday

    Time Temperature Precipitation Wind Pressure Humidity
    00:00 0°C° 0 mm 1 mps 742 mmHg 89%
    01:00 0°C° 0 mm 1 mps 742 mmHg 89%
    02:00 0°C° 0 mm 1 mps 742 mmHg 88%
    03:00 -2°C° 0 mm 2 mps 742 mmHg 88%
    04:00 -2°C° 0 mm 2 mps 742 mmHg 88%
    05:00 -2°C° 0 mm 2 mps 742 mmHg 89%
    06:00 -2°C° 0 mm 2 mps 743 mmHg 89%
    07:00 -1°C° 0 mm 2 mps 743 mmHg 86%
    08:00 -1°C° 0 mm 3 mps 744 mmHg 84%
    09:00 0°C° 0 mm 3 mps 744 mmHg 82%
    10:00 +1°C° 0.1 mm 3 mps 744 mmHg 79%
    11:00 +2°C° 0.1 mm 3 mps 744 mmHg 77%
    12:00 +2°C° 0.1 mm 3 mps 744 mmHg 74%
    13:00 +3°C° 0.2 mm 3 mps 744 mmHg 75%
    14:00 +3°C° 0.2 mm 3 mps 743 mmHg 77%
    15:00 +3°C° 0.2 mm 3 mps 742 mmHg 78%
    16:00 +3°C° 0 mm 4 mps 742 mmHg 81%
    17:00 +1°C° 0 mm 4 mps 742 mmHg 85%
    18:00 +1°C° 0 mm 4 mps 742 mmHg 89%
    19:00 +1°C° 0 mm 3 mps 742 mmHg 91%
    20:00 +1°C° 0 mm 3 mps 742 mmHg 92%
    21:00 +1°C° 0 mm 2 mps 743 mmHg 94%
    22:00 +1°C° 0 mm 2 mps 743 mmHg 94%
    23:00 +1°C° 0 mm 2 mps 742 mmHg 93%

    22 February, Friday

    Time Temperature Precipitation Wind Pressure Humidity
    00:00 +1°C° 0 mm 2 mps 742 mmHg 93%
    01:00 +1°C° 0 mm 2 mps 742 mmHg 93%
    02:00 0°C° 0 mm 3 mps 742 mmHg 94%
    03:00 0°C° 0 mm 3 mps 741 mmHg 94%
    04:00 0°C° 0 mm 3 mps 742 mmHg 94%
    05:00 -1°C° 0 mm 2 mps 742 mmHg 95%
    06:00 -1°C° 0 mm 2 mps 742 mmHg 96%
    07:00 +1°C° 0 mm 2 mps 742 mmHg 94%
    08:00 +2°C° 0 mm 2 mps 742 mmHg 92%
    09:00 +3°C° 0 mm 2 mps 743 mmHg 90%
    10:00 +3°C° 0 mm 3 mps 742 mmHg 90%
    11:00 +3°C° 0 mm 3 mps 742 mmHg 90%
    12:00 +4°C° 0 mm 3 mps 741 mmHg 90%
    13:00 +5°C° 0.1 mm 3 mps 740 mmHg 90%
    14:00 +5°C° 0.1 mm 3 mps 740 mmHg 89%
    15:00 +7°C° 0.1 mm 3 mps 739 mmHg 89%
    16:00 +7°C° 0.2 mm 3 mps 739 mmHg 91%
    17:00 +7°C° 0.2 mm 2 mps 739 mmHg 94%
    18:00 +6°C° 0.2 mm 2 mps 739 mmHg 96%
    19:00 +6°C° 0.1 mm 2 mps 739 mmHg 97%
    20:00 +6°C° 0.1 mm 2 mps 739 mmHg 97%
    21:00 +7°C° 0.1 mm 1 mps 739 mmHg 97%
    22:00 +8°C° 0.1 mm 1 mps 738 mmHg 97%
    23:00 +8°C° 0.1 mm 1 mps 738 mmHg 97%

    23 February, Saturday

    Time Temperature Precipitation Wind Pressure Humidity
    00:00 +8°C° 0.1 mm 1 mps 738 mmHg 97%
    01:00 +7°C° 0 mm 2 mps 737 mmHg 98%
    02:00 +7°C° 0 mm 3 mps 737 mmHg 98%
    03:00 +6°C° 0 mm 4 mps 736 mmHg 98%
    04:00 +7°C° 0.1 mm 4 mps 736 mmHg 98%
    05:00 +8°C° 0.1 mm 3 mps 736 mmHg 98%
    06:00 +9°C° 0.1 mm 3 mps 736 mmHg 98%
    07:00 +9°C° 0.1 mm 3 mps 736 mmHg 98%
    08:00 +9°C° 0.1 mm 2 mps 735 mmHg 98%
    09:00 +9°C° 0.1 mm 2 mps 735 mmHg 98%
    10:00 +10°C° 0.1 mm 3 mps 734 mmHg 96%
    11:00 +11°C° 0.1 mm 4 mps 733 mmHg 95%
    12:00 +10°C° 0.1 mm 5 mps 732 mmHg 94%
    13:00 +14°C° 0.1 mm 7 mps 732 mmHg 75%
    14:00 +16°C° 0.1 mm 9 mps 731 mmHg 55%
    15:00 +18°C° 0.1 mm 11 mps 730 mmHg 36%
    16:00 +16°C° 0 mm 10 mps 731 mmHg 38%
    17:00 +13°C° 0 mm 8 mps 731 mmHg 40%
    18:00 +12°C° 0 mm 7 mps 731 mmHg 42%
    19:00 +10°C° 0 mm 7 mps 732 mmHg 51%
    20:00 +9°C° 0 mm 8 mps 733 mmHg 60%
    21:00 +6°C° 0 mm 9 mps 734 mmHg 69%
    22:00 +5°C° 0 mm 8 mps 735 mmHg 70%
    23:00 +4°C° 0 mm 7 mps 736 mmHg 71%
    Show more